DLH1823 LEZL-EDDM

Flight info

Callsign DLH1823
Flight time 2h 26m
Altitude 38000
Route HIJ M30 PARKA N858 SIE T430 LPA T429 TOPTU DCT TOU DCT GAI DCT MEN DCT NINUN DCT LATAM DCT ETREK DCT LTP DCT SOPLO DCT OMASI DCT KINNI DCT SOSAL DCT KORED DCT BERSU N871 DITON/N0440F390 DCT NUNRI T103 BETOS BETOS1A
Aircraft A320/M-SDE3FGHIRWY/LB1

Departure

Time 2026-04-30 07:01
Airport Seville Airport (LEZL)

Arrival

Time 2026-04-30 09:28
Airport Munich Airport (EDDM)
Time Latitude Longitude Altitude Speed Heading
2026-04-30 06:58 37.41896 -5.87422 115 ft 0 kts 181°
2026-04-30 06:59 37.41855 -5.87429 113 ft 13 kts 194°
2026-04-30 07:00 37.41800 -5.87514 117 ft 12 kts 268°
2026-04-30 07:00 37.41800 -5.87581 115 ft 0 kts 270°
2026-04-30 07:00 37.41800 -5.87589 115 ft 8 kts 270°
2026-04-30 07:01 37.41798 -5.87976 110 ft 83 kts 270°
2026-04-30 07:01 37.41794 -5.88959 104 ft 142 kts 270°
2026-04-30 07:01 37.41792 -5.90389 238 ft 176 kts 270°
2026-04-30 07:01 37.41814 -5.91965 885 ft 180 kts 276°
2026-04-30 07:02 37.42315 -5.93398 1535 ft 186 kts 313°
2026-04-30 07:02 37.43269 -5.94514 2194 ft 189 kts 321°
2026-04-30 07:02 37.44293 -5.95581 2806 ft 195 kts 321°
2026-04-30 07:02 37.45349 -5.96721 3236 ft 214 kts 320°
2026-04-30 07:03 37.46535 -5.98026 3682 ft 238 kts 320°
2026-04-30 07:03 37.47833 -5.99479 4228 ft 259 kts 319°
2026-04-30 07:03 37.49185 -6.01024 5092 ft 265 kts 318°
2026-04-30 07:03 37.50554 -6.02615 5985 ft 270 kts 316°
2026-04-30 07:04 37.51944 -6.04251 6846 ft 275 kts 314°
2026-04-30 07:04 37.53350 -6.05911 7707 ft 279 kts 314°
2026-04-30 07:04 37.54780 -6.07601 8576 ft 283 kts 314°
2026-04-30 07:04 37.56249 -6.09284 9458 ft 289 kts 320°
2026-04-30 07:05 37.60233 -6.10636 10565 ft 329 kts
2026-04-30 07:05 37.62388 -6.09538 11107 ft 344 kts 34°
2026-04-30 07:05 37.64259 -6.07583 11706 ft 353 kts 40°
2026-04-30 07:06 37.66124 -6.05520 12460 ft 359 kts 40°
2026-04-30 07:06 37.68004 -6.03420 13211 ft 363 kts 40°
2026-04-30 07:06 37.69906 -6.01288 13945 ft 368 kts 40°
2026-04-30 07:06 37.71830 -5.99136 14594 ft 372 kts 40°
2026-04-30 07:07 37.73773 -5.96963 15251 ft 375 kts 40°
2026-04-30 07:07 37.75736 -5.94769 15911 ft 379 kts 40°
2026-04-30 07:07 37.77725 -5.92550 16571 ft 382 kts 40°
2026-04-30 07:07 37.80778 -5.89143 17563 ft 387 kts 40°
2026-04-30 07:08 37.89024 -5.79949 19851 ft 403 kts 40°
2026-04-30 07:08 37.97550 -5.70370 21982 ft 416 kts 40°
2026-04-30 07:08 38.06357 -5.60488 23909 ft 430 kts 40°
2026-04-30 07:08 38.15445 -5.50241 25487 ft 442 kts 40°
2026-04-30 07:09 38.24713 -5.39739 27035 ft 452 kts 40°
2026-04-30 07:09 38.34197 -5.28963 28454 ft 463 kts 41°
2026-04-30 07:09 38.40601 -5.21653 29380 ft 470 kts 41°
2026-04-30 07:09 38.55615 -5.10926 30972 ft 470 kts
2026-04-30 07:10 38.64178 -5.11387 31697 ft 467 kts 351°
2026-04-30 07:10 38.77114 -5.12647 33217 ft 464 kts 351°
2026-04-30 07:10 38.86849 -5.13657 34355 ft 460 kts 351°
2026-04-30 07:10 38.99640 -5.13712 35580 ft 468 kts 11°
2026-04-30 07:11 39.05846 -5.10167 36137 ft 476 kts 30°
2026-04-30 07:11 39.08628 -5.07852 36394 ft 476 kts 30°
2026-04-30 07:11 39.11415 -5.05547 36640 ft 475 kts 30°
2026-04-30 07:11 39.14197 -5.03248 36887 ft 475 kts 30°
2026-04-30 07:12 39.16978 -5.00947 37138 ft 475 kts 30°
2026-04-30 07:12 39.19752 -4.98648 37380 ft 474 kts 30°
2026-04-30 07:12 39.22528 -4.96345 37621 ft 474 kts 30°
2026-04-30 07:12 39.25294 -4.94047 37846 ft 473 kts 29°
2026-04-30 07:13 39.28065 -4.91748 38032 ft 474 kts 29°
2026-04-30 07:13 39.30836 -4.89444 38081 ft 474 kts 29°
2026-04-30 07:13 39.36382 -4.84822 38079 ft 474 kts 29°
2026-04-30 07:14 39.41916 -4.80204 38078 ft 474 kts 29°
2026-04-30 07:14 39.47455 -4.75561 38079 ft 474 kts 30°
2026-04-30 07:15 39.52981 -4.70928 38073 ft 474 kts 29°
2026-04-30 07:15 39.58518 -4.66277 38075 ft 474 kts 29°
2026-04-30 07:16 39.64047 -4.61624 38077 ft 474 kts 29°
2026-04-30 07:16 39.69578 -4.56970 38060 ft 474 kts 29°
2026-04-30 07:17 39.75109 -4.52303 38078 ft 474 kts 29°
2026-04-30 07:18 39.83390 -4.45281 38080 ft 474 kts 29°
2026-04-30 07:18 39.88911 -4.40591 38073 ft 474 kts 29°
2026-04-30 07:19 39.94425 -4.35895 38071 ft 474 kts 29°
2026-04-30 07:19 40.00149 -4.31791 38075 ft 468 kts 20°
2026-04-30 07:20 40.06053 -4.28202 38071 ft 468 kts 20°
2026-04-30 07:20 40.11948 -4.24605 38074 ft 468 kts 20°
2026-04-30 07:21 40.17844 -4.20998 38091 ft 468 kts 20°
2026-04-30 07:21 40.23732 -4.17386 38075 ft 468 kts 20°
2026-04-30 07:22 40.32575 -4.11966 38076 ft 468 kts 20°
2026-04-30 07:22 40.38460 -4.08346 38074 ft 468 kts 20°
2026-04-30 07:23 40.44349 -4.04710 38074 ft 467 kts 19°
2026-04-30 07:23 40.50228 -4.01082 38085 ft 467 kts 19°
2026-04-30 07:24 40.56111 -3.97445 38093 ft 467 kts 19°
2026-04-30 07:24 40.61986 -3.93799 38101 ft 467 kts 20°
2026-04-30 07:25 40.67827 -3.90163 38108 ft 467 kts 20°
2026-04-30 07:25 40.73702 -3.86496 38111 ft 467 kts 20°
2026-04-30 07:26 40.79581 -3.82833 38067 ft 467 kts 20°
2026-04-30 07:26 40.85457 -3.79167 38082 ft 467 kts 19°
2026-04-30 07:27 40.91325 -3.75488 38074 ft 467 kts 20°
2026-04-30 07:27 40.97191 -3.71806 38070 ft 466 kts 19°
2026-04-30 07:28 41.03051 -3.68118 38067 ft 467 kts 20°
2026-04-30 07:28 41.08914 -3.64422 38082 ft 466 kts 20°
2026-04-30 07:29 41.14747 -3.60669 38067 ft 468 kts 25°
2026-04-30 07:29 41.20148 -3.55727 38070 ft 472 kts 31°
2026-04-30 07:30 41.28152 -3.48079 38070 ft 473 kts 31°
2026-04-30 07:31 41.33491 -3.42977 38065 ft 472 kts 31°
2026-04-30 07:31 41.38824 -3.37869 38065 ft 472 kts 31°
2026-04-30 07:32 41.44150 -3.32748 38065 ft 473 kts 31°
2026-04-30 07:32 41.49483 -3.27604 38069 ft 473 kts 31°
2026-04-30 07:33 41.54806 -3.22462 38059 ft 472 kts 31°
2026-04-30 07:33 41.60130 -3.17331 38061 ft 471 kts 31°
2026-04-30 07:34 41.65436 -3.12189 38060 ft 471 kts 31°
2026-04-30 07:34 41.70742 -3.07038 38068 ft 471 kts 31°
2026-04-30 07:35 41.76054 -3.01873 38051 ft 472 kts 32°
2026-04-30 07:35 41.81358 -2.96694 38064 ft 472 kts 32°
2026-04-30 07:36 41.86663 -2.91510 38058 ft 472 kts 32°
2026-04-30 07:36 41.91964 -2.86311 38069 ft 472 kts 32°
2026-04-30 07:37 41.97268 -2.81110 38050 ft 471 kts 32°
2026-04-30 07:37 42.02554 -2.75915 38056 ft 470 kts 32°
2026-04-30 07:38 42.07827 -2.70710 38056 ft 470 kts 32°
2026-04-30 07:38 42.13096 -2.65498 38056 ft 470 kts 32°
2026-04-30 07:39 42.18375 -2.60276 38062 ft 471 kts 32°
2026-04-30 07:39 42.23650 -2.55047 38065 ft 471 kts 33°
2026-04-30 07:40 42.28925 -2.49801 38073 ft 471 kts 33°
2026-04-30 07:40 42.34166 -2.44586 38080 ft 471 kts 33°
2026-04-30 07:41 42.39434 -2.39327 38099 ft 470 kts 33°
2026-04-30 07:41 42.44180 -2.33232 38089 ft 474 kts 52°
2026-04-30 07:41 42.45938 -2.29441 38080 ft 476 kts 63°
2026-04-30 07:42 42.47210 -2.25295 38085 ft 477 kts 73°
2026-04-30 07:42 42.48748 -2.16550 38090 ft 478 kts 77°
2026-04-30 07:43 42.50205 -2.07752 38079 ft 478 kts 77°
2026-04-30 07:43 42.51662 -1.98950 38078 ft 479 kts 78°
2026-04-30 07:44 42.53108 -1.90145 38064 ft 478 kts 78°
2026-04-30 07:44 42.54544 -1.81339 38079 ft 478 kts 78°
2026-04-30 07:45 42.55968 -1.72534 38081 ft 478 kts 78°
2026-04-30 07:45 42.57386 -1.63730 38081 ft 478 kts 78°
2026-04-30 07:46 42.58803 -1.54919 38079 ft 478 kts 78°
2026-04-30 07:46 42.60215 -1.46099 38083 ft 478 kts 78°
2026-04-30 07:47 42.61618 -1.37283 38077 ft 476 kts 78°
2026-04-30 07:47 42.63006 -1.28498 38076 ft 476 kts 78°
2026-04-30 07:48 42.64386 -1.19711 38072 ft 476 kts 78°
2026-04-30 07:48 42.65761 -1.10933 38073 ft 475 kts 78°
2026-04-30 07:49 42.67128 -1.02216 38077 ft 474 kts 78°
2026-04-30 07:49 42.68487 -0.93450 38079 ft 474 kts 79°
2026-04-30 07:50 42.69828 -0.84685 38074 ft 474 kts 79°
2026-04-30 07:50 42.71168 -0.75910 38063 ft 474 kts 79°
2026-04-30 07:51 42.72507 -0.67151 38079 ft 473 kts 79°
2026-04-30 07:51 42.73837 -0.58392 38081 ft 472 kts 79°
2026-04-30 07:52 42.75153 -0.49648 38084 ft 472 kts 79°
2026-04-30 07:52 42.76248 -0.42365 38089 ft 472 kts 79°
2026-04-30 07:53 42.77556 -0.33603 38091 ft 472 kts 79°
2026-04-30 07:53 42.78886 -0.24853 38082 ft 473 kts 76°
2026-04-30 07:53 42.79949 -0.20618 38088 ft 473 kts 65°
2026-04-30 07:54 42.81481 -0.16671 38081 ft 472 kts 56°
2026-04-30 07:54 42.85537 -0.09653 38083 ft 471 kts 49°
2026-04-30 07:55 42.89695 -0.02743 38075 ft 472 kts 50°
2026-04-30 07:55 42.93839 0.04208 38085 ft 472 kts 50°
2026-04-30 07:56 42.97991 0.11174 38086 ft 473 kts 50°
2026-04-30 07:56 43.02144 0.18135 38094 ft 473 kts 50°
2026-04-30 07:57 43.06267 0.25053 38076 ft 468 kts 50°
2026-04-30 07:57 43.10367 0.31966 38076 ft 467 kts 50°
2026-04-30 07:58 43.14457 0.38873 38060 ft 467 kts 50°
2026-04-30 07:58 43.18534 0.45779 38070 ft 466 kts 50°
2026-04-30 07:59 43.22596 0.52685 38068 ft 465 kts 50°
2026-04-30 07:59 43.26652 0.59571 38068 ft 462 kts 50°
2026-04-30 08:00 43.32664 0.69824 38071 ft 462 kts 51°
2026-04-30 08:00 43.36686 0.76703 38058 ft 461 kts 50°
2026-04-30 08:01 43.40727 0.83630 38066 ft 461 kts 50°
2026-04-30 08:01 43.44707 0.90460 38067 ft 460 kts 52°
2026-04-30 08:02 43.50687 1.00765 38071 ft 459 kts 52°
2026-04-30 08:03 43.58638 1.14519 38076 ft 459 kts 52°
2026-04-30 08:04 43.62613 1.21437 38087 ft 461 kts 52°
2026-04-30 08:04 43.66597 1.28372 38084 ft 461 kts 52°
2026-04-30 08:05 43.70537 1.35363 38086 ft 461 kts 53°
2026-04-30 08:05 43.74334 1.42514 38083 ft 461 kts 54°
2026-04-30 08:06 43.78093 1.49698 38079 ft 461 kts 54°
2026-04-30 08:06 43.81890 1.56868 38080 ft 462 kts 54°
2026-04-30 08:07 43.85708 1.64032 38082 ft 463 kts 54°
2026-04-30 08:07 43.89518 1.71224 38076 ft 462 kts 54°
2026-04-30 08:08 43.93314 1.78429 38070 ft 463 kts 54°
2026-04-30 08:08 43.97088 1.85660 38074 ft 462 kts 55°
2026-04-30 08:09 44.00749 1.92997 38076 ft 462 kts 56°
2026-04-30 08:09 44.04368 2.00373 38075 ft 461 kts 56°
2026-04-30 08:10 44.08004 2.07718 38079 ft 461 kts 56°
2026-04-30 08:10 44.11647 2.15044 38082 ft 461 kts 56°
2026-04-30 08:11 44.15285 2.22390 38085 ft 461 kts 56°
2026-04-30 08:11 44.18907 2.29747 38075 ft 461 kts 56°
2026-04-30 08:12 44.22525 2.37123 38083 ft 460 kts 56°
2026-04-30 08:12 44.26129 2.44481 38092 ft 459 kts 56°
2026-04-30 08:13 44.29732 2.51829 38113 ft 459 kts 56°
2026-04-30 08:13 44.33324 2.59196 38111 ft 459 kts 56°
2026-04-30 08:14 44.36889 2.66529 38106 ft 459 kts 56°
2026-04-30 08:14 44.40472 2.73915 38108 ft 458 kts 56°
2026-04-30 08:15 44.44042 2.81281 38110 ft 458 kts 56°
2026-04-30 08:15 44.47613 2.88662 38112 ft 458 kts 56°
2026-04-30 08:16 44.51179 2.96068 38113 ft 458 kts 56°
2026-04-30 08:16 44.54736 3.03466 38115 ft 458 kts 56°
2026-04-30 08:17 44.58287 3.10873 38112 ft 457 kts 55°
2026-04-30 08:17 44.61781 3.18303 38130 ft 455 kts 58°
2026-04-30 08:18 44.64943 3.25998 38111 ft 455 kts 61°
2026-04-30 08:18 44.67949 3.33826 38115 ft 455 kts 61°
2026-04-30 08:19 44.70992 3.41620 38112 ft 455 kts 60°
2026-04-30 08:19 44.74089 3.49376 38111 ft 455 kts 60°
2026-04-30 08:20 44.77194 3.57128 38110 ft 455 kts 60°
2026-04-30 08:20 44.80284 3.64905 38110 ft 455 kts 60°
2026-04-30 08:21 44.83360 3.72690 38114 ft 455 kts 60°
2026-04-30 08:21 44.86424 3.80483 38113 ft 455 kts 60°
2026-04-30 08:22 44.89486 3.88275 38116 ft 454 kts 60°
2026-04-30 08:22 44.92546 3.96069 38109 ft 454 kts 60°
2026-04-30 08:23 44.95597 4.03853 38128 ft 452 kts 60°
2026-04-30 08:23 44.98630 4.11623 38114 ft 452 kts 60°
2026-04-30 08:24 45.01654 4.19407 38125 ft 452 kts 60°
2026-04-30 08:24 45.04668 4.27206 38118 ft 452 kts 60°
2026-04-30 08:25 45.07685 4.35005 38121 ft 452 kts 60°
2026-04-30 08:25 45.10700 4.42819 38151 ft 452 kts 60°
2026-04-30 08:26 45.13697 4.50635 38129 ft 451 kts 60°
2026-04-30 08:26 45.16684 4.58437 38127 ft 451 kts 60°
2026-04-30 08:27 45.19671 4.66233 38133 ft 451 kts 60°
2026-04-30 08:27 45.22657 4.74060 38133 ft 451 kts 60°
2026-04-30 08:28 45.25631 4.81892 38137 ft 451 kts 61°
2026-04-30 08:28 45.28602 4.89734 38144 ft 450 kts 61°
2026-04-30 08:29 45.31560 4.97546 38135 ft 449 kts 61°
2026-04-30 08:29 45.34512 5.05375 38137 ft 449 kts 61°
2026-04-30 08:30 45.37457 5.13210 38139 ft 449 kts 61°
2026-04-30 08:30 45.40399 5.21052 38138 ft 450 kts 61°
2026-04-30 08:31 45.43335 5.28916 38139 ft 450 kts 61°
2026-04-30 08:31 45.46259 5.36778 38139 ft 449 kts 61°
2026-04-30 08:32 45.49516 5.44273 38141 ft 447 kts 48°
2026-04-30 08:32 45.53982 5.50364 38146 ft 444 kts 40°
2026-04-30 08:33 45.58601 5.56232 38154 ft 444 kts 40°
2026-04-30 08:33 45.63200 5.62128 38159 ft 444 kts 40°
2026-04-30 08:34 45.67796 5.68035 38190 ft 444 kts 40°
2026-04-30 08:34 45.72378 5.73925 38180 ft 443 kts 40°
2026-04-30 08:35 45.76966 5.79820 38184 ft 443 kts 40°
2026-04-30 08:35 45.81556 5.85716 38193 ft 443 kts 40°
2026-04-30 08:36 45.86127 5.91601 38202 ft 441 kts 40°
2026-04-30 08:36 45.89937 5.96533 38193 ft 440 kts 39°
2026-04-30 08:37 45.94449 6.02375 38192 ft 439 kts 39°
2026-04-30 08:37 45.98993 6.08261 38192 ft 440 kts 39°
2026-04-30 08:38 46.03517 6.14158 38192 ft 438 kts 40°
2026-04-30 08:38 46.08022 6.20029 38193 ft 437 kts 40°
2026-04-30 08:39 46.12451 6.26019 38216 ft 437 kts 42°
2026-04-30 08:39 46.16762 6.32222 38217 ft 437 kts 43°
2026-04-30 08:40 46.21052 6.38438 38216 ft 436 kts 43°
2026-04-30 08:40 46.25340 6.44582 38212 ft 433 kts 42°
2026-04-30 08:41 46.29623 6.50680 38209 ft 432 kts 43°
2026-04-30 08:41 46.33898 6.56792 38214 ft 432 kts 43°
2026-04-30 08:42 46.38161 6.62925 38220 ft 432 kts 43°
2026-04-30 08:42 46.42408 6.69051 38212 ft 430 kts 43°
2026-04-30 08:43 46.46647 6.75173 38223 ft 430 kts 43°
2026-04-30 08:43 46.50890 6.81295 38210 ft 430 kts 43°
2026-04-30 08:44 46.55124 6.87436 38242 ft 430 kts 43°
2026-04-30 08:44 46.58967 6.94115 38229 ft 431 kts 49°
2026-04-30 08:45 46.62735 7.00886 38228 ft 431 kts 49°
2026-04-30 08:45 46.66487 7.07645 38232 ft 431 kts 49°
2026-04-30 08:46 46.70250 7.14446 38232 ft 431 kts 49°
2026-04-30 08:46 46.74005 7.21252 38225 ft 431 kts 49°
2026-04-30 08:47 46.77735 7.28024 38220 ft 426 kts 49°
2026-04-30 08:47 46.81403 7.34712 38237 ft 425 kts 49°
2026-04-30 08:48 46.85081 7.41446 38220 ft 424 kts 49°
2026-04-30 08:48 46.88753 7.48181 38220 ft 423 kts 49°
2026-04-30 08:49 46.92421 7.54919 38222 ft 423 kts 49°
2026-04-30 08:49 46.96070 7.61640 38222 ft 420 kts 49°
2026-04-30 08:50 46.99690 7.68342 38232 ft 419 kts 50°
2026-04-30 08:50 47.03306 7.75051 38232 ft 419 kts 50°
2026-04-30 08:51 47.06922 7.81764 38244 ft 419 kts 50°
2026-04-30 08:51 47.10530 7.88480 38243 ft 419 kts 50°
2026-04-30 08:52 47.14068 7.95295 38253 ft 421 kts 56°
2026-04-30 08:52 47.17183 8.02589 38254 ft 421 kts 56°
2026-04-30 08:53 47.20293 8.09888 38263 ft 421 kts 56°
2026-04-30 08:53 47.23399 8.17195 38265 ft 421 kts 56°
2026-04-30 08:54 47.26569 8.24659 38272 ft 421 kts 56°
2026-04-30 08:54 47.29584 8.31857 38280 ft 424 kts 59°
2026-04-30 08:55 47.31721 8.40043 38279 ft 431 kts 70°
2026-04-30 08:55 47.33569 8.48460 38265 ft 432 kts 70°
2026-04-30 08:56 47.35422 8.56827 38280 ft 432 kts 70°
2026-04-30 08:56 47.37280 8.65252 38277 ft 432 kts 70°
2026-04-30 08:57 47.39128 8.73690 38265 ft 432 kts 70°
2026-04-30 08:57 47.40959 8.82117 38270 ft 433 kts 70°
2026-04-30 08:58 47.42805 8.90633 38270 ft 434 kts 70°
2026-04-30 08:58 47.43725 8.94892 37953 ft 437 kts 70°
2026-04-30 08:58 47.44647 8.99167 37344 ft 436 kts 70°
2026-04-30 08:58 47.45560 9.03401 36923 ft 429 kts 70°
2026-04-30 08:59 47.46452 9.07544 36539 ft 422 kts 70°
2026-04-30 08:59 47.47334 9.11656 36138 ft 415 kts 70°
2026-04-30 08:59 47.48201 9.15706 35735 ft 409 kts 70°
2026-04-30 08:59 47.49049 9.19680 35341 ft 402 kts 70°
2026-04-30 09:00 47.49881 9.23585 34995 ft 396 kts 70°
2026-04-30 09:00 47.50701 9.27440 34622 ft 390 kts 70°
2026-04-30 09:00 47.51507 9.31228 34268 ft 384 kts 70°
2026-04-30 09:00 47.52305 9.34979 33819 ft 378 kts 70°
2026-04-30 09:01 47.53085 9.38666 33354 ft 374 kts 70°
2026-04-30 09:01 47.53858 9.42322 32874 ft 370 kts 70°
2026-04-30 09:01 47.54619 9.45930 32403 ft 366 kts 70°
2026-04-30 09:01 47.55374 9.49512 31939 ft 362 kts 70°
2026-04-30 09:02 47.56848 9.56560 31024 ft 355 kts 71°
2026-04-30 09:02 47.57573 9.60033 30574 ft 351 kts 71°
2026-04-30 09:02 47.58213 9.63501 30094 ft 349 kts 77°
2026-04-30 09:03 47.58509 9.67065 29593 ft 348 kts 84°
2026-04-30 09:03 47.58451 9.70646 29097 ft 347 kts 89°
2026-04-30 09:03 47.58305 9.74190 28586 ft 344 kts 89°
2026-04-30 09:03 47.58163 9.77727 28066 ft 342 kts 89°
2026-04-30 09:04 47.58023 9.81229 27552 ft 340 kts 89°
2026-04-30 09:04 47.57884 9.84711 27055 ft 338 kts 89°
2026-04-30 09:04 47.57745 9.88173 26570 ft 336 kts 89°
2026-04-30 09:04 47.57608 9.91617 26091 ft 334 kts 89°
2026-04-30 09:05 47.57470 9.95047 25618 ft 333 kts 89°
2026-04-30 09:05 47.57329 9.98462 25155 ft 331 kts 89°
2026-04-30 09:05 47.57186 10.01855 24697 ft 330 kts 89°
2026-04-30 09:05 47.57044 10.05220 24227 ft 328 kts 89°
2026-04-30 09:06 47.56898 10.08605 23787 ft 327 kts 89°
2026-04-30 09:06 47.56752 10.11943 23325 ft 324 kts 89°
2026-04-30 09:06 47.56607 10.15263 22838 ft 322 kts 89°
2026-04-30 09:06 47.56462 10.18563 22386 ft 321 kts 89°
2026-04-30 09:07 47.56318 10.21856 21933 ft 319 kts 89°
2026-04-30 09:07 47.56175 10.25126 21479 ft 318 kts 89°
2026-04-30 09:07 47.56030 10.28387 21031 ft 317 kts 89°
2026-04-30 09:07 47.55887 10.31631 20575 ft 315 kts 89°
2026-04-30 09:08 47.55743 10.34866 20156 ft 314 kts 89°
2026-04-30 09:08 47.55599 10.38094 19747 ft 313 kts 89°
2026-04-30 09:08 47.55452 10.41301 19353 ft 312 kts 90°
2026-04-30 09:08 47.55303 10.44500 18968 ft 311 kts 90°
2026-04-30 09:09 47.55154 10.47693 18561 ft 310 kts 90°
2026-04-30 09:09 47.55012 10.50874 18175 ft 309 kts 88°
2026-04-30 09:09 47.55137 10.54015 17779 ft 304 kts 77°
2026-04-30 09:09 47.55661 10.57020 17413 ft 300 kts 68°
2026-04-30 09:10 47.56542 10.59800 17048 ft 297 kts 58°
2026-04-30 09:10 47.57611 10.62418 16674 ft 297 kts 58°
2026-04-30 09:10 47.58673 10.65038 16310 ft 296 kts 58°
2026-04-30 09:10 47.59728 10.67652 15954 ft 295 kts 58°
2026-04-30 09:11 47.60776 10.70258 15601 ft 295 kts 58°
2026-04-30 09:11 47.61821 10.72867 15257 ft 294 kts 59°
2026-04-30 09:11 47.62857 10.75456 14907 ft 293 kts 59°
2026-04-30 09:11 47.63899 10.78052 14586 ft 292 kts 59°
2026-04-30 09:12 47.64935 10.80644 14272 ft 291 kts 59°
2026-04-30 09:12 47.65966 10.83219 13929 ft 290 kts 59°
2026-04-30 09:12 47.66997 10.85793 13553 ft 290 kts 59°
2026-04-30 09:12 47.68073 10.88297 13206 ft 288 kts 53°
2026-04-30 09:13 47.69441 10.90457 12859 ft 287 kts 41°
2026-04-30 09:13 47.71003 10.92311 12507 ft 286 kts 41°
2026-04-30 09:13 47.72551 10.94139 12245 ft 282 kts 40°
2026-04-30 09:13 47.74080 10.95951 11872 ft 281 kts 41°
2026-04-30 09:14 47.75603 10.97764 11499 ft 280 kts 41°
2026-04-30 09:14 47.77122 10.99575 11175 ft 278 kts 40°
2026-04-30 09:14 47.78626 11.01368 10792 ft 278 kts 40°
2026-04-30 09:14 47.80122 11.03146 10432 ft 277 kts 40°
2026-04-30 09:15 47.81621 11.04931 10323 ft 276 kts 41°
2026-04-30 09:15 47.83122 11.06721 10326 ft 277 kts 40°
2026-04-30 09:15 47.84629 11.08520 10327 ft 278 kts 40°
2026-04-30 09:15 47.86139 11.10324 10241 ft 277 kts 41°
2026-04-30 09:16 47.87644 11.12116 10068 ft 277 kts 41°
2026-04-30 09:16 47.89149 11.13902 9951 ft 277 kts 40°
2026-04-30 09:16 47.90646 11.15679 9923 ft 272 kts 40°
2026-04-30 09:16 47.92128 11.17440 9930 ft 274 kts 40°
2026-04-30 09:17 47.93618 11.19209 9935 ft 273 kts 40°
2026-04-30 09:17 47.95102 11.20972 9798 ft 271 kts 40°
2026-04-30 09:17 47.96575 11.22729 9596 ft 272 kts 40°
2026-04-30 09:17 47.98061 11.24506 9388 ft 272 kts 40°
2026-04-30 09:18 47.99059 11.25701 9262 ft 271 kts 41°
2026-04-30 09:18 48.00500 11.27424 9050 ft 270 kts 41°
2026-04-30 09:18 48.01971 11.29186 8849 ft 271 kts 41°
2026-04-30 09:18 48.03433 11.30941 8633 ft 268 kts 42°
2026-04-30 09:19 48.04913 11.32694 8439 ft 270 kts 39°
2026-04-30 09:19 48.06596 11.33945 8231 ft 274 kts 24°
2026-04-30 09:19 48.08384 11.34886 8021 ft 275 kts 18°
2026-04-30 09:19 48.10308 11.35144 7817 ft 277 kts
2026-04-30 09:20 48.12237 11.35180 7612 ft 277 kts
2026-04-30 09:20 48.14164 11.35225 7412 ft 277 kts
2026-04-30 09:20 48.16092 11.35245 7210 ft 277 kts
2026-04-30 09:20 48.18017 11.35252 7015 ft 277 kts
2026-04-30 09:21 48.19941 11.35266 6820 ft 277 kts
2026-04-30 09:21 48.21865 11.35298 6610 ft 273 kts
2026-04-30 09:21 48.23661 11.35657 6400 ft 257 kts 22°
2026-04-30 09:21 48.25339 11.36505 6186 ft 246 kts 28°
2026-04-30 09:22 48.26751 11.37796 5989 ft 232 kts 48°
2026-04-30 09:22 48.27748 11.39619 5810 ft 223 kts 57°
2026-04-30 09:22 48.28666 11.41469 5659 ft 220 kts 56°
2026-04-30 09:22 48.29563 11.43288 5507 ft 218 kts 56°
2026-04-30 09:23 48.30459 11.45107 5375 ft 211 kts 57°
2026-04-30 09:23 48.31312 11.46837 5227 ft 207 kts 58°
2026-04-30 09:23 48.31960 11.48694 5056 ft 198 kts 78°
2026-04-30 09:23 48.32152 11.50730 4824 ft 198 kts 84°
2026-04-30 09:24 48.32312 11.52800 4555 ft 196 kts 84°
2026-04-30 09:24 48.32471 11.54825 4289 ft 196 kts 84°
2026-04-30 09:24 48.32630 11.56820 4030 ft 187 kts 84°
2026-04-30 09:24 48.32777 11.58683 3796 ft 172 kts 84°
2026-04-30 09:25 48.32911 11.60370 3580 ft 155 kts 83°
2026-04-30 09:25 48.33034 11.61930 3358 ft 149 kts 84°
2026-04-30 09:25 48.33154 11.63449 3157 ft 143 kts 84°
2026-04-30 09:25 48.33267 11.64890 2961 ft 136 kts 84°
2026-04-30 09:26 48.33377 11.66290 2791 ft 134 kts 84°
2026-04-30 09:26 48.33485 11.67669 2582 ft 132 kts 84°
2026-04-30 09:26 48.33592 11.69032 2376 ft 134 kts 84°
2026-04-30 09:26 48.33701 11.70421 2147 ft 132 kts 85°
2026-04-30 09:27 48.33813 11.71794 1979 ft 132 kts 85°
2026-04-30 09:27 48.33921 11.73178 1773 ft 132 kts 85°
2026-04-30 09:27 48.34031 11.74568 1593 ft 134 kts 85°
2026-04-30 09:27 48.34134 11.75930 1477 ft 123 kts 87°
2026-04-30 09:28 48.34220 11.77057 1477 ft 90 kts 83°
2026-04-30 09:28 48.34270 11.77730 1483 ft 40 kts 84°
2026-04-30 09:28 48.34297 11.78091 1481 ft 37 kts 82°
2026-04-30 09:28 48.34420 11.78439 1476 ft 37 kts 53°
2026-04-30 09:29 48.34560 11.78725 1479 ft 32 kts 53°
2026-04-30 09:29 48.34640 11.79004 1481 ft 28 kts 84°
2026-04-30 09:29 48.34661 11.79282 1485 ft 26 kts 83°
2026-04-30 09:29 48.34680 11.79502 1485 ft 13 kts 81°
2026-04-30 09:30 48.34752 11.79549 1481 ft 13 kts
2026-04-30 09:30 48.34850 11.79557 1480 ft 15 kts
2026-04-30 09:30 48.34960 11.79538 1485 ft 17 kts 353°
2026-04-30 09:30 48.35068 11.79583 1477 ft 18 kts 28°
2026-04-30 09:31 48.35181 11.79633 1480 ft 12 kts 334°
2026-04-30 09:31 48.35258 11.79622 1475 ft 11 kts 355°
2026-04-30 09:31 48.35329 11.79610 1482 ft 10 kts 353°
2026-04-30 09:31 48.35360 11.79675 1476 ft 10 kts 85°
2026-04-30 09:32 48.35365 11.79757 1485 ft 1 kts 83°
2026-04-30 09:32 48.35365 11.79758 1485 ft 0 kts 83°